Terminal Aerodrome Forecast
Issued by NWS

Home | Current Version | Previous Version | Text Only | Print | Product List | Glossary On
Versions: 1 2 3 4 5 6 7 8 9 10 11 12 13 14 15 16 17 18 19 20 21 22 23 24 25 26 27 28 29 30 31 32 33 34 35 36 37 38 39 40 41 42
000
FTAK31 PAFA 251730
TAFAQT
TAF
PAQT 251730Z 2518/2618 34007KT P6SM OVC007
      TEMPO 2518/2520 SCT007 BKN015
     FM252000 32005KT P6SM BKN015
     FM260500 05006KT P6SM BKN009=

USA.gov is the U.S. government's official web portal to all federal, state and local government web resources and services.